• In Germany
  • List of Countries
  • For 7 days
  • Water Temperature
  • Satellite Maps
  • Weather Map
  • Weather Widgets
  • user-avatar
    Login

    Hourly Weather Sumgayit

    Today, 21 July, Saturday

    Time Temperature Precipitation Wind Pressure Humidity
    00:00 +29°C° 0.2 mm 6 mps 732 mmHg 56%
    01:00 +29°C° 0.2 mm 6 mps 732 mmHg 57%
    02:00 +29°C° 0.2 mm 6 mps 732 mmHg 58%
    03:00 +29°C° 0 mm 6 mps 732 mmHg 56%
    04:00 +29°C° 0 mm 6 mps 732 mmHg 55%
    05:00 +29°C° 0 mm 7 mps 732 mmHg 55%
    06:00 +29°C° 0 mm 7 mps 733 mmHg 54%
    07:00 +30°C° 0 mm 7 mps 733 mmHg 50%
    08:00 +32°C° 0 mm 7 mps 733 mmHg 47%
    09:00 +33°C° 0 mm 7 mps 733 mmHg 43%
    10:00 +34°C° 0 mm 7 mps 733 mmHg 42%
    11:00 +34°C° 0 mm 7 mps 733 mmHg 40%
    12:00 +35°C° 0 mm 7 mps 733 mmHg 39%
    13:00 +35°C° 0 mm 8 mps 733 mmHg 39%
    14:00 +35°C° 0 mm 8 mps 733 mmHg 40%
    15:00 +34°C° 0 mm 9 mps 733 mmHg 41%
    16:00 +34°C° 0 mm 9 mps 733 mmHg 42%
    17:00 +33°C° 0 mm 10 mps 733 mmHg 44%
    18:00 +32°C° 0 mm 10 mps 733 mmHg 46%
    19:00 +31°C° 0 mm 10 mps 733 mmHg 47%
    20:00 +31°C° 0 mm 9 mps 733 mmHg 48%
    21:00 +29°C° 0 mm 9 mps 734 mmHg 48%
    22:00 +29°C° 0 mm 8 mps 734 mmHg 47%
    23:00 +29°C° 0 mm 7 mps 734 mmHg 45%

    Tomorrow, 22 July, Sunday

    Time Temperature Precipitation Wind Pressure Humidity
    00:00 +29°C° 0 mm 6 mps 734 mmHg 44%
    01:00 +29°C° 0 mm 6 mps 734 mmHg 44%
    02:00 +29°C° 0 mm 5 mps 734 mmHg 45%
    03:00 +29°C° 0 mm 5 mps 734 mmHg 45%
    04:00 +29°C° 0 mm 5 mps 734 mmHg 46%
    05:00 +29°C° 0 mm 5 mps 734 mmHg 47%
    06:00 +29°C° 0 mm 5 mps 734 mmHg 48%
    07:00 +30°C° 0 mm 6 mps 734 mmHg 44%
    08:00 +32°C° 0 mm 6 mps 735 mmHg 41%
    09:00 +33°C° 0 mm 6 mps 735 mmHg 37%
    10:00 +34°C° 0 mm 7 mps 735 mmHg 36%
    11:00 +34°C° 0 mm 7 mps 734 mmHg 35%
    12:00 +35°C° 0 mm 7 mps 734 mmHg 34%
    13:00 +35°C° 0 mm 7 mps 734 mmHg 35%
    14:00 +35°C° 0 mm 7 mps 733 mmHg 36%
    15:00 +35°C° 0 mm 7 mps 733 mmHg 37%
    16:00 +34°C° 0 mm 7 mps 733 mmHg 39%
    17:00 +33°C° 0 mm 7 mps 733 mmHg 41%
    18:00 +33°C° 0 mm 7 mps 733 mmHg 43%
    19:00 +32°C° 0 mm 7 mps 733 mmHg 45%
    20:00 +30°C° 0 mm 6 mps 733 mmHg 46%
    21:00 +30°C° 0 mm 6 mps 733 mmHg 47%
    22:00 +29°C° 0 mm 6 mps 733 mmHg 48%
    23:00 +29°C° 0 mm 6 mps 733 mmHg 48%

    Day after tomorrow, 23 July, Monday

    Time Temperature Precipitation Wind Pressure Humidity
    00:00 +29°C° 0 mm 5 mps 733 mmHg 48%
    01:00 +29°C° 0 mm 5 mps 732 mmHg 49%
    02:00 +28°C° 0 mm 5 mps 732 mmHg 50%
    03:00 +28°C° 0 mm 5 mps 732 mmHg 51%
    04:00 +28°C° 0 mm 5 mps 732 mmHg 50%
    05:00 +28°C° 0 mm 5 mps 732 mmHg 49%
    06:00 +29°C° 0 mm 5 mps 732 mmHg 49%
    07:00 +30°C° 0 mm 6 mps 732 mmHg 45%
    08:00 +32°C° 0 mm 6 mps 732 mmHg 42%
    09:00 +33°C° 0 mm 6 mps 733 mmHg 39%
    10:00 +34°C° 0 mm 7 mps 732 mmHg 38%
    11:00 +34°C° 0 mm 7 mps 732 mmHg 36%
    12:00 +35°C° 0 mm 7 mps 732 mmHg 35%
    13:00 +35°C° 0 mm 7 mps 731 mmHg 35%
    14:00 +35°C° 0 mm 7 mps 731 mmHg 35%
    15:00 +35°C° 0 mm 8 mps 731 mmHg 36%
    16:00 +35°C° 0 mm 8 mps 730 mmHg 37%
    17:00 +34°C° 0 mm 7 mps 730 mmHg 38%
    18:00 +33°C° 0 mm 7 mps 730 mmHg 39%
    19:00 +33°C° 0 mm 7 mps 730 mmHg 40%
    20:00 +32°C° 0 mm 7 mps 730 mmHg 42%
    21:00 +32°C° 0 mm 7 mps 731 mmHg 43%
    22:00 +30°C° 0 mm 7 mps 731 mmHg 44%
    23:00 +30°C° 0 mm 6 mps 731 mmHg 44%

    24 July, Tuesday

    Time Temperature Precipitation Wind Pressure Humidity
    00:00 +30°C° 0 mm 6 mps 731 mmHg 44%
    01:00 +30°C° 0 mm 6 mps 730 mmHg 45%
    02:00 +29°C° 0 mm 5 mps 730 mmHg 45%
    03:00 +29°C° 0 mm 5 mps 730 mmHg 46%
    04:00 +29°C° 0.1 mm 5 mps 730 mmHg 45%
    05:00 +29°C° 0.1 mm 5 mps 731 mmHg 45%
    06:00 +29°C° 0.1 mm 5 mps 731 mmHg 44%
    07:00 +32°C° 0 mm 5 mps 731 mmHg 42%
    08:00 +33°C° 0 mm 5 mps 731 mmHg 39%
    09:00 +34°C° 0 mm 5 mps 731 mmHg 36%
    10:00 +35°C° 0 mm 5 mps 731 mmHg 36%
    11:00 +36°C° 0 mm 5 mps 731 mmHg 35%
    12:00 +37°C° 0 mm 5 mps 731 mmHg 34%
    13:00 +36°C° 0 mm 6 mps 731 mmHg 35%
    14:00 +36°C° 0 mm 6 mps 731 mmHg 37%
    15:00 +36°C° 0 mm 7 mps 731 mmHg 38%
    16:00 +35°C° 0 mm 7 mps 731 mmHg 40%
    17:00 +35°C° 0 mm 7 mps 731 mmHg 42%
    18:00 +34°C° 0 mm 7 mps 732 mmHg 44%
    19:00 +33°C° 0 mm 6 mps 732 mmHg 45%
    20:00 +33°C° 0 mm 6 mps 732 mmHg 47%
    21:00 +32°C° 0 mm 5 mps 733 mmHg 48%
    22:00 +32°C° 0 mm 5 mps 733 mmHg 49%
    23:00 +32°C° 0 mm 4 mps 733 mmHg 51%

    25 July, Wednesday

    Time Temperature Precipitation Wind Pressure Humidity
    00:00 +30°C° 0 mm 4 mps 732 mmHg 52%
    01:00 +30°C° 0 mm 4 mps 732 mmHg 54%
    02:00 +29°C° 0 mm 3 mps 732 mmHg 55%
    03:00 +29°C° 0 mm 3 mps 732 mmHg 56%
    04:00 +29°C° 0 mm 3 mps 732 mmHg 55%
    05:00 +29°C° 0 mm 3 mps 733 mmHg 53%
    06:00 +30°C° 0 mm 3 mps 733 mmHg 52%
    07:00 +31°C° 0 mm 2 mps 733 mmHg 48%
    08:00 +32°C° 0 mm 2 mps 733 mmHg 44%
    09:00 +34°C° 0 mm 2 mps 733 mmHg 41%
    10:00 +35°C° 0 mm 2 mps 733 mmHg 38%
    11:00 +36°C° 0 mm 2 mps 733 mmHg 36%
    12:00 +37°C° 0 mm 2 mps 733 mmHg 33%
    13:00 +38°C° 0 mm 3 mps 733 mmHg 33%
    14:00 +38°C° 0 mm 4 mps 732 mmHg 33%
    15:00 +38°C° 0 mm 4 mps 732 mmHg 33%
    16:00 +37°C° 0 mm 4 mps 732 mmHg 36%
    17:00 +36°C° 0 mm 4 mps 732 mmHg 39%
    18:00 +35°C° 0 mm 4 mps 732 mmHg 42%
    19:00 +34°C° 0 mm 3 mps 732 mmHg 45%
    20:00 +32°C° 0 mm 2 mps 733 mmHg 48%
    21:00 +32°C° 0 mm 1 mps 733 mmHg 51%
    22:00 +31°C° 0 mm 1 mps 733 mmHg 52%
    23:00 +31°C° 0 mm 1 mps 733 mmHg 52%

    26 July, Thursday

    Time Temperature Precipitation Wind Pressure Humidity
    00:00 +31°C° 0 mm 1 mps 733 mmHg 53%
    01:00 +31°C° 0 mm 1 mps 733 mmHg 52%
    02:00 +31°C° 0 mm 2 mps 733 mmHg 52%
    03:00 +30°C° 0 mm 2 mps 733 mmHg 52%
    04:00 +30°C° 0 mm 2 mps 733 mmHg 51%
    05:00 +31°C° 0 mm 2 mps 733 mmHg 50%
    06:00 +31°C° 0 mm 2 mps 733 mmHg 49%
    07:00 +32°C° 0 mm 2 mps 734 mmHg 47%
    08:00 +34°C° 0 mm 2 mps 734 mmHg 45%
    09:00 +35°C° 0 mm 2 mps 734 mmHg 43%
    10:00 +36°C° 0 mm 3 mps 734 mmHg 40%
    11:00 +37°C° 0 mm 4 mps 734 mmHg 36%
    12:00 +39°C° 0 mm 5 mps 733 mmHg 32%
    13:00 +39°C° 0 mm 5 mps 733 mmHg 29%
    14:00 +39°C° 0 mm 6 mps 733 mmHg 26%
    15:00 +40°C° 0 mm 6 mps 733 mmHg 23%
    16:00 +39°C° 0 mm 6 mps 733 mmHg 23%
    17:00 +39°C° 0 mm 6 mps 733 mmHg 23%
    18:00 +38°C° 0 mm 6 mps 733 mmHg 23%
    19:00 +36°C° 0 mm 5 mps 733 mmHg 25%
    20:00 +35°C° 0 mm 5 mps 733 mmHg 27%
    21:00 +35°C° 0 mm 5 mps 733 mmHg 28%
    22:00 +34°C° 0 mm 5 mps 733 mmHg 30%
    23:00 +34°C° 0 mm 5 mps 733 mmHg 31%
    Show more